Location: Unspecified
(40.8819°N, 0.0000°E)
Time: 04:12:05
(UTC+00:00)

NOAA 18 - Visible Passes

Search period start: 19 September 2024 00:00
Search period end: 29 September 2024 00:00
Orbit: 837 x 858 km, 98.9° (Epoch: 18 September)

Date Brightness Start Highest point End Pass type
(mag) Time Alt. Az. Time Alt. Az. Time Alt. Az.
19 Sep 7.4 20:59:51 14° NNE 20:59:51 14° NNE 21:00:58 10° NNE visible
19 Sep 7.9 22:41:49 14° NNW 22:41:49 14° NNW 22:42:34 10° NNW visible
20 Sep 7.5 20:47:12 12° NNE 20:47:12 12° NNE 20:47:51 10° NNE visible
20 Sep 7.8 22:29:09 15° NNW 22:29:09 15° NNW 22:30:01 10° NNW visible
21 Sep 7.7 22:16:28 15° NNW 22:16:28 15° NNW 22:17:24 10° NNW visible
22 Sep 7.7 22:03:48 15° N 22:03:48 15° N 22:04:44 10° N visible
23 Sep 7.7 21:51:08 15° N 21:51:08 15° N 21:52:01 10° N visible
24 Sep 7.7 21:38:27 14° N 21:38:27 14° N 21:39:15 10° N visible
25 Sep 7.7 21:25:47 13° N 21:25:47 13° N 21:26:25 10° N visible
26 Sep 7.7 21:13:06 12° NNE 21:13:06 12° NNE 21:13:31 10° N visible
27 Sep 7.7 21:00:26 10° NNE 21:00:26 10° NNE 21:00:31 10° NNE visible
